Location: Newark
(50.4348°N, 30.5552°E)
Time: 23:49:53
(UTC+00:00)

Tiros 1 despin weight - Pass Details

Date: 02 February 2020
Orbit: 594 x 642 km, 48.2° (Epoch: 19 February)

Event Time Altitude Azimuth Distance (km) Brightness Sun altitude
Rises 10:12:29 0° 275° (W) 2,866 ? 22.7°
Reaches altitude 10° 10:14:48 10° 271° (W) 1,969 ? 22.7°
Maximum altitude 10:19:13 54° 195° (SSW) 753 ? 22.6°
Drops below altitude 10° 10:23:41 10° 118° (ESE) 1,995 ? 22.6°
Sets 10:26:03 0° 114° (ESE) 2,908 ? 22.6°
